Lapse_Rate
5.2 4.4 4.1 4.6 4.7 5.3 5.0 5.1 5.6 6.3 7.1 7.5 7.3 7.5 7.4 7.3 7.0 7.3 7.7 7.4 7.3 6.6 6.3 5.6 5.1 5.0 6.5 5.3 6.2 5.5 5.9 5.4 7.0 7.7 8.6 8.2 7.7 7.3 6.5 6.8 7.0 6.5 6.7 7.2 7.4 7.4 7.3
4.6 4.8 4.0 3.9 4.6 5.0 4.8 4.7 5.2 5.6 6.5 7.0 6.8 7.0 7.1 7.4 7.2 7.4 7.3 7.3 7.0 7.5 7.6 7.4 5.5 3.9 5.4 6.6 7.9 5.8 5.4 6.1 7.5 8.0 7.5 8.5 7.7 7.8 7.3 6.9 6.6 7.1 7.0 7.0 7.3 7.2 7.3
4.0 3.9 3.9 4.0 4.2 4.8 4.8 4.6 4.6 4.9 5.6 6.2 6.2 6.3 6.6 6.5 7.7 7.1 7.3 6.8 7.4 7.5 7.8 8.4 7.1 6.6 7.0 6.5 5.7 5.3 5.4 5.6 5.9 7.7 6.8 5.7 6.2 7.7 7.6 6.6 7.6 7.2 6.5 6.5 6.9 7.1 6.7
3.9 3.4 3.6 4.1 3.5 4.4 4.6 4.4 4.5 4.5 4.8 5.3 5.6 5.7 5.3 5.9 6.6 6.8 7.1 7.0 6.6 6.7 7.4 8.1 7.8 6.5 6.8 6.6 5.8 6.0 7.4 6.7 7.0 6.5 5.2 5.4 6.6 5.7 7.5 7.7 7.0 6.5 6.5 6.5 6.5 6.8 6.9
3.9 3.6 3.3 3.3 3.4 3.5 4.4 4.3 4.2 4.4 4.0 4.1 4.6 5.0 5.0 5.1 5.3 7.0 6.4 7.4 7.1 7.1 6.9 6.8 7.7 7.3 7.1 7.2 6.0 5.9 6.3 6.9 6.7 6.1 5.8 5.8 5.7 7.5 7.3 6.5 6.5 6.5 6.5 6.5 6.5 6.9 6.5
3.9 3.7 3.4 3.0 3.1 3.2 3.8 4.4 4.0 4.0 3.7 3.3 3.7 3.9 4.5 4.6 3.9 5.2 5.1 6.0 7.0 7.0 6.9 6.6 6.8 7.5 7.5 6.8 5.8 5.2 6.3 6.3 6.9 7.0 7.0 6.6 7.4 6.5 6.5 6.5 6.5 6.5 6.5 6.5 6.5 6.5 6.5
3.8 3.5 3.6 3.1 2.9 3.0 3.1 3.6 3.8 3.5 3.3 2.5 2.7 3.1 3.3 3.5 4.4 3.2 4.8 5.6 6.9 7.8 7.2 7.4 7.3 7.5 6.5 6.3 6.6 6.5 4.9 6.7 6.9 7.6 6.5 7.1 6.5 6.5 6.5 6.5 6.5 6.5 6.5 6.5 6.5 6.5 6.5
3.6 3.4 3.3 3.1 3.2 2.8 2.6 2.8 3.2 3.2 2.9 2.4 2.0 2.4 2.8 2.5 2.7 2.5 4.4 5.0 4.1 5.0 6.9 5.9 6.7 6.2 6.1 4.8 7.4 6.3 6.3 7.3 7.1 6.5 6.6 6.5 6.5 6.5 6.5 6.5 6.5 6.5 6.5 6.5 6.5 6.5 6.5
3.1 3.5 3.2 3.0 3.0 2.8 2.3 2.3 2.6 2.9 2.6 2.1 1.9 2.2 2.2 2.1 2.4 3.0 3.2 3.3 2.5 2.0 7.0 7.3 6.1 6.8 6.4 7.0 7.3 7.0 6.7 7.1 6.7 6.5 6.5 6.5 6.5 6.7 6.5 6.5 6.5 6.5 6.5 6.5 6.5 6.5 6.5
2.9 3.1 3.3 3.1 2.9 3.0 2.6 2.0 1.8 2.3 2.5 2.3 2.1 2.2 2.2 2.3 5.3 3.2 3.7 2.0 1.6 2.2 6.5 6.5 6.8 7.4 7.8 6.4 6.9 6.8 6.5 7.3 6.8 6.5 6.5 6.5 6.7 6.5 6.5 6.5 6.5 6.5 6.5 6.5 6.5 6.5 6.5
2.9 2.9 3.0 3.1 3.2 3.0 3.0 2.4 1.9 1.4 1.6 1.9 2.0 2.1 2.2 2.6 4.5 5.5 3.4 2.4 2.3 4.3 6.5 6.5 6.8 7.5 7.4 7.1 7.3 7.4 6.9 7.6 6.5 6.5 6.5 6.5 6.5 6.5 6.5 6.5 6.5 6.5 6.5 6.5 6.5 6.5 6.5
3.2 3.0 2.8 2.7 2.8 3.0 2.8 2.7 2.0 1.6 1.1 1.2 1.4 1.8 2.2 3.8 4.4 3.0 2.3 2.7 4.3 6.5 6.5 6.5 6.9 6.6 6.6 7.1 7.0 7.4 7.4 7.4 7.5 6.5 6.5 6.5 7.2 6.6 6.5 6.5 6.5 6.5 6.5 6.5 6.5 6.5 6.5
2.4 2.8 2.6 2.4 2.3 2.4 2.6 2.3 2.1 1.5 1.1 0.6 1.2 1.6 2.6 2.4 5.0 2.0 2.4 5.6 6.5 6.5 6.5 6.5 6.5 6.5 6.5 6.5 6.5 6.6 6.5 6.5 6.5 6.5 6.5 6.5 6.5 6.6 6.8 6.5 6.5 6.5 6.5 6.5 6.5 6.5 6.5
2.5 2.4 2.4 2.2 2.1 1.9 1.9 2.0 1.8 1.5 0.7 0.5 0.5 1.4 1.3 1.9 1.8 2.0 4.4 6.6 6.5 6.5 6.5 6.5 6.5 6.5 6.5 6.5 6.5 6.5 6.5 6.5 6.5 6.5 6.5 6.5 6.5 6.5 6.6 6.5 6.5 6.5 6.5 6.5 6.5 6.5 6.5
2.5 2.4 2.3 1.9 1.7 1.4 1.4 1.4 1.3 0.7 0.2 0.0 0.3 2.1 3.5 2.2 0.9 2.7 7.2 6.5 6.5 6.5 6.5 6.5 6.5 6.5 6.5 6.5 6.5 6.5 6.5 6.5 6.5 6.5 6.5 6.5 6.5 6.5 6.5 6.6 6.5 6.5 6.5 6.5 6.5 6.5 6.5
2.4 2.4 2.4 2.2 1.6 1.2 1.0 0.9 0.8 0.2 -0.2 -0.4 2.9 3.6 3.6 0.6 0.7 4.4 6.6 6.5 6.5 6.7 6.6 6.5 6.5 6.5 6.5 6.5 6.5 6.5 6.5 6.5 6.5 6.6 6.9 6.5 6.5 6.5 6.5 6.8 6.7 6.5 6.5 6.5 6.5 6.5 6.5
2.6 2.3 2.3 2.3 1.6 1.2 0.8 0.5 0.2 -0.1 -0.8 -0.7 2.6 5.3 2.5 -0.5 1.3 7.0 6.5 6.5 6.5 7.1 7.1 6.5 6.5 6.5 6.5 6.5 6.5 6.5 6.5 6.5 6.6 6.5 6.8 6.5 6.5 6.5 6.5 6.5 6.5 6.5 6.5 6.5 6.5 6.5 6.5
2.7 2.8 2.3 2.3 1.7 1.3 0.7 0.5 0.0 -0.7 -1.2 -0.2 1.9 6.1 1.2 -0.1 6.5 7.0 6.5 6.5 6.7 6.7 7.2 6.7 6.6 6.5 6.5 6.5 6.5 6.5 6.5 6.5 7.1 6.9 6.5 6.5 6.5 6.5 6.5 6.5 6.5 6.5 6.5 6.5 6.5 6.5 6.5
2.5 2.8 2.7 2.1 2.3 1.6 0.6 0.3 0.1 -0.4 -1.3 0.0 3.7 2.6 1.3 1.3 6.5 6.5 6.7 6.5 6.8 6.5 6.6 6.5 6.5 6.5 6.5 6.5 6.5 6.5 6.5 6.9 7.1 6.6 6.5 6.5 6.5 6.5 6.5 6.5 6.5 6.5 6.5 6.5 6.5 6.5 6.5
2.0 2.5 2.9 2.7 2.4 2.2 1.4 0.3 -0.1 -0.3 -1.0 0.2 3.9 6.5 5.6 3.9 5.7 6.6 6.5 6.5 6.5 6.7 6.8 6.9 6.6 6.7 6.5 6.5 6.5 6.5 6.5 6.6 7.1 7.0 6.6 6.8 6.5 6.5 6.5 6.5 6.5 6.5 6.5 6.5 6.5 6.5 6.5
3.3 3.3 3.0 2.9 2.6 2.6 2.3 0.5 0.1 -0.4 -0.9 1.3 2.4 6.2 4.6 6.5 6.7 6.7 6.6 6.5 6.5 6.5 6.9 7.0 6.5 6.5 6.5 6.5 6.5 6.5 6.5 6.5 6.8 7.0 6.9 6.5 6.5 6.5 6.5 6.5 6.5 6.5 6.5 6.5 6.5 6.5 6.5
4.5 4.5 3.8 3.0 2.6 2.7 2.4 1.0 0.5 -0.1 -0.3 0.7 5.6 6.5 5.3 7.0 6.7 6.6 6.5 6.5 6.5 6.5 6.5 6.5 6.5 6.5 6.5 6.5 6.5 6.5 6.5 6.5 6.5 6.7 6.5 6.6 6.5 6.5 6.5 6.5 6.5 6.5 6.5 6.5 6.5 6.5 6.5
5.6 5.3 5.0 4.6 3.9 3.3 2.3 1.9 1.4 1.3 1.3 2.8 0.6 1.7 5.6 6.5 6.7 6.5 6.5 6.5 6.5 6.7 6.8 6.9 6.7 6.5 6.5 6.6 7.1 7.2 7.3 7.2 6.9 6.5 6.5 6.5 6.5 6.5 6.5 6.5 6.5 6.5 6.5 6.5 6.5 6.5 6.5
7.2 6.2 5.6 5.2 5.1 4.3 3.2 2.4 2.4 1.8 1.7 2.6 1.2 3.0 6.6 6.5 6.6 6.5 6.6 6.7 6.5 6.7 6.5 6.9 6.9 6.6 6.8 6.5 6.1 6.5 7.3 7.1 7.0 6.8 6.9 6.5 6.5 6.5 6.5 6.5 6.5 6.5 6.5 6.5 6.5 6.5 6.5
6.9 6.8 6.9 6.0 5.2 5.3 5.0 3.7 3.0 2.8 3.1 2.8 0.8 4.0 5.8 6.5 6.8 6.7 6.7 6.7 6.9 6.7 6.8 6.8 7.0 6.5 5.7 6.7 6.5 6.5 6.5 6.5 6.5 6.5 6.5 6.7 6.5 6.5 6.5 6.5 6.5 6.5 6.5 6.5 6.5 6.5 6.5
7.0 6.8 6.8 6.7 6.7 5.5 5.6 6.2 5.2 3.8 3.5 3.2 1.8 1.6 4.8 7.0 6.6 6.2 6.8 6.9 6.5 6.5 6.6 6.9 6.0 5.6 6.4 6.7 6.5 6.5 6.5 6.5 6.5 6.5 6.7 6.5 6.5 6.5 6.5 6.5 6.5 6.5 6.5 7.0 6.7 6.5 6.7
7.3 7.2 7.0 6.8 6.6 6.3 6.0 6.0 5.8 5.5 4.8 4.0 3.0 1.4 4.8 6.3 5.6 5.7 6.8 6.6 6.0 6.7 6.5 6.9 7.0 6.6 6.0 6.5 6.5 6.5 6.5 6.5 6.5 6.5 6.5 6.5 6.5 6.5 6.5 6.5 6.5 6.5 6.8 7.0 6.5 6.5 6.9
6.8 6.5 6.6 6.6 6.3 5.9 5.5 5.7 5.9 5.4 4.8 4.8 4.0 1.7 5.6 6.3 5.8 4.7 5.7 5.8 5.6 6.7 6.5 6.9 6.5 6.5 6.7 6.5 6.5 6.5 6.5 6.5 6.5 6.5 6.5 6.5 6.5 6.5 6.5 6.5 6.5 6.9 6.7 6.5 6.7 7.0 7.3
5.5 5.2 4.9 5.1 5.1 5.0 4.8 5.0 5.4 5.8 4.8 4.4 4.8 1.8 2.8 5.8 6.2 3.8 5.2 5.7 6.7 7.4 7.2 5.7 6.8 6.0 7.0 6.5 6.5 6.5 6.5 6.5 6.5 6.5 6.5 6.5 6.5 6.5 6.5 6.5 6.8 7.1 7.0 7.1 6.4 7.3 7.4
Wind_Speed
17 16 17 18 18 19 19 21 23 24 24 26 27 27 27 30 33 33 24 22 22 32 30 29 29 13 4 7 4 11 18 8 2 5 12 14 16 9 9 8 7 11 6 7 7 8 7
19 18 17 18 18 18 19 20 22 24 24 24 26 25 26 28 26 30 30 27 24 28 25 25 28 20 7 9 7 11 9 4 4 6 7 11 7 9 10 6 6 7 11 8 7 6 6
19 19 18 18 19 18 18 20 21 23 23 23 23 24 25 21 22 24 24 23 24 17 15 26 24 11 13 4 9 13 5 3 2 4 7 5 8 4 6 10 6 7 9 6 10 6 4
19 18 19 19 19 19 19 19 20 22 22 22 22 23 22 21 14 14 15 15 17 14 10 15 11 4 11 1 7 13 5 13 11 14 13 10 12 12 4 11 4 4 3 5 5 8 2
20 19 19 19 20 20 19 19 20 20 21 20 20 21 22 18 10 8 11 16 9 9 10 5 6 3 8 9 7 8 7 9 9 10 8 5 6 6 4 11 7 3 5 4 3 6 5
19 20 19 20 20 20 20 19 21 21 21 20 20 20 20 19 13 3 4 3 15 8 2 2 5 6 8 7 5 6 4 6 7 5 5 7 5 6 5 5 6 9 5 3 3 3 3
19 19 19 19 21 21 21 20 19 20 20 22 21 21 17 15 15 9 2 2 5 11 17 14 8 8 3 8 2 12 5 2 3 8 6 5 8 9 6 4 5 9 8 6 2 2 4
19 19 19 19 20 21 21 21 20 19 20 20 21 20 20 17 8 10 5 6 3 2 13 9 9 6 3 3 9 17 10 6 6 7 1 6 10 5 4 5 9 7 8 4 2 1 3
18 19 19 20 20 21 22 22 21 19 19 18 19 20 20 21 5 5 7 4 2 2 6 11 4 7 5 8 8 12 9 3 9 11 10 10 5 2 5 7 9 7 3 3 2 3 1
19 19 20 20 21 20 22 23 23 21 17 17 17 18 20 19 1 2 3 1 2 3 4 14 12 8 8 3 6 5 5 3 5 8 7 8 4 4 6 6 4 4 3 3 2 3 3
20 20 21 21 21 22 22 22 23 23 22 16 14 13 13 14 2 3 3 4 2 3 5 15 7 6 8 6 3 11 6 7 7 5 1 3 4 5 5 3 4 4 2 3 1 1 2
21 21 22 22 23 23 24 23 23 21 20 20 14 11 7 3 2 2 5 4 2 1 6 5 5 8 5 9 4 4 6 7 2 9 15 5 2 3 3 5 6 9 3 2 1 1 2
18 20 22 22 23 23 23 24 23 23 20 16 10 6 4 1 2 1 1 2 2 6 2 4 3 5 5 7 6 7 5 7 4 3 3 2 3 2 1 4 3 1 1 1 2 2 3
17 19 21 22 22 23 24 24 24 23 21 14 5 3 4 3 1 2 2 0 9 1 2 0 2 2 5 6 5 5 2 3 7 4 3 2 3 1 2 4 2 3 2 2 3 2 2
17 18 20 21 23 23 25 26 26 24 20 9 1 1 2 4 1 2 1 7 3 3 3 4 1 3 3 3 2 2 5 2 3 4 2 2 3 2 4 3 3 3 1 2 1 2 3
16 17 19 22 24 24 25 27 28 27 22 3 1 1 2 5 2 1 5 5 2 1 1 1 1 1 2 2 1 2 3 1 3 0 2 3 4 2 2 2 5 1 4 2 1 3 4
16 16 18 20 23 26 27 28 28 28 21 1 0 1 2 1 2 4 5 4 3 2 0 2 1 2 2 2 3 1 2 2 3 4 0 3 1 3 2 6 6 4 3 2 1 2 3
14 16 17 20 23 26 27 29 30 29 20 3 0 2 2 2 3 3 3 3 2 3 1 2 1 1 1 2 2 1 1 4 2 2 2 1 1 3 2 2 2 3 3 6 4 4 3
11 15 16 18 21 25 27 28 30 30 16 2 2 1 1 2 3 3 2 3 0 3 3 3 2 2 1 2 2 2 2 2 4 1 0 2 2 2 2 2 2 5 8 6 1 0 8
10 13 15 17 19 22 27 27 29 29 16 2 1 3 4 4 3 3 4 3 3 1 2 1 1 1 2 2 2 3 4 2 4 2 4 2 2 5 2 3 1 4 8 12 11 5 6
9 10 12 15 16 18 24 25 29 29 16 1 4 2 1 3 5 4 2 2 3 3 1 3 2 5 3 3 3 3 2 2 2 4 4 5 4 2 8 10 9 12 14 13 19 18 10
9 10 11 14 16 15 19 24 29 31 11 4 2 2 1 2 1 1 2 0 2 1 3 2 4 3 6 3 3 3 5 4 3 4 4 2 2 1 5 4 5 10 14 17 19 21 22
8 9 10 11 12 13 15 18 23 29 11 3 1 1 2 1 1 1 1 1 1 1 2 1 2 2 5 8 6 2 3 1 0 3 7 3 3 1 5 2 10 10 8 12 10 10 15
11 9 7 9 10 10 9 11 16 19 11 2 1 0 2 1 1 1 1 2 2 2 2 1 1 2 3 1 0 1 1 1 3 6 2 4 3 2 4 7 4 4 2 4 13 9 16
14 12 10 8 8 7 8 6 7 10 10 3 2 1 1 3 2 3 3 3 2 2 3 3 3 1 1 1 3 4 2 3 2 3 5 3 5 3 3 4 10 2 3 6 7 2 7
15 13 13 12 11 9 8 6 3 3 4 3 2 1 1 1 2 1 1 1 2 2 1 2 1 1 1 1 2 3 3 0 3 3 5 4 2 6 2 4 4 2 2 2 2 4 3
17 16 14 13 13 12 11 9 6 4 2 2 2 2 2 1 2 4 3 2 2 1 2 1 2 2 0 2 3 4 3 1 3 4 5 4 5 12 8 5 9 6 5 2 3 3 1
16 16 15 13 11 10 10 11 10 10 8 2 2 3 1 2 3 6 5 5 3 2 2 2 2 1 2 4 3 3 3 2 2 3 5 7 8 5 6 5 8 8 6 5 3 6 7
10 7 5 3 1 3 6 11 13 12 14 9 2 3 3 2 3 2 5 4 3 4 3 3 2 1 3 2 2 1 3 3 3 2 2 5 6 5 10 6 2 5 8 2 3 11 9
Wind_Direction
19 12 6 359 8 12 360 0 0 2 4 8 11 15 12 17 24 34 66 82 94 106 108 105 102 78 45 67 27 299 320 335 104 166 144 152 148 138 114 109 103 96 107 72 92 96 79
18 14 13 359 6 12 3 359 2 360 1 5 11 12 23 24 24 35 53 66 90 100 98 98 99 67 34 53 302 311 330 335 93 137 126 152 126 116 92 71 55 109 106 99 70 80 66
22 16 11 4 1 11 9 359 1 0 0 2 5 7 15 26 21 32 45 53 75 90 79 82 94 111 80 40 318 343 12 359 348 127 105 80 123 103 128 105 111 117 102 100 37 8 55
24 18 10 8 1 8 11 2 4 1 358 359 0 0 11 25 28 9 27 33 48 55 63 96 114 106 80 246 332 28 67 80 79 73 93 93 92 90 69 120 96 104 123 146 25 353 1
22 18 13 7 5 4 11 6 1 3 356 359 1 2 0 25 41 60 38 47 33 46 50 40 67 50 52 344 22 343 30 82 95 77 68 81 74 77 137 128 118 54 141 126 126 27 318
21 19 13 8 5 0 8 10 1 3 357 0 1 4 5 6 48 47 37 32 41 36 51 57 59 79 23 349 321 336 23 40 74 98 79 43 71 111 118 166 165 150 133 134 150 21 316
20 18 17 11 4 1 1 7 6 360 0 354 359 3 8 5 15 29 321 356 42 50 51 76 60 89 16 316 299 26 4 346 46 55 95 29 119 99 72 38 86 124 128 139 121 49 308
18 17 16 12 9 1 360 360 4 1 359 355 356 1 356 354 7 13 46 68 42 24 73 37 60 65 42 320 47 19 10 44 41 76 111 98 80 53 81 93 103 113 131 95 112 6 306
18 14 14 12 10 2 358 357 357 360 358 355 353 357 353 344 315 30 64 64 142 202 66 35 15 30 354 21 42 10 12 44 48 62 64 81 78 58 99 92 105 62 83 109 16 324 277
17 13 11 11 8 6 360 355 353 352 355 352 351 354 354 345 58 337 43 80 252 266 78 2 3 34 357 348 58 9 14 23 59 78 62 64 36 84 86 72 350 113 57 84 35 305 274
17 12 10 9 8 3 3 358 353 349 345 349 348 351 360 32 59 38 3 331 281 242 64 337 342 324 355 58 335 25 17 41 68 54 280 69 68 65 68 31 349 98 93 72 51 50 338
16 14 11 10 8 4 0 359 353 349 344 338 341 344 355 53 72 28 338 331 258 69 56 354 333 359 41 33 36 351 39 55 101 68 71 83 51 27 73 66 70 130 120 109 124 316 259
13 12 11 10 10 5 1 357 355 349 345 344 341 6 38 94 73 81 65 277 69 60 329 360 350 356 55 33 43 27 33 45 40 94 39 78 49 67 35 111 110 138 207 265 227 209 277
7 5 8 6 6 5 1 356 355 353 343 339 341 96 57 44 317 196 163 169 66 216 203 131 308 352 57 15 50 31 81 64 49 28 125 137 165 87 17 28 17 58 319 297 276 266 332
1 5 1 1 2 4 2 356 352 353 347 333 216 54 61 17 309 272 228 53 105 183 142 168 123 65 66 40 37 76 52 64 44 18 41 130 92 60 44 33 343 104 247 18 359 133 274
356 2 360 358 359 360 1 359 354 355 356 6 135 105 41 337 330 261 71 100 72 89 55 336 108 267 128 54 65 52 37 107 135 169 291 143 121 52 101 161 71 333 124 195 166 304 281
347 358 357 357 357 357 358 358 358 356 357 48 24 129 31 50 249 56 75 82 123 170 64 4 103 115 90 72 16 76 135 146 209 154 173 159 268 128 208 204 184 162 195 182 340 253 284
345 351 353 356 359 358 358 356 357 359 357 57 337 38 48 255 49 38 59 88 136 150 153 140 126 72 139 147 137 147 313 355 132 168 169 96 161 176 168 97 321 269 238 200 243 189 226
335 342 349 357 357 0 358 356 356 360 10 337 38 323 91 265 78 79 115 100 44 153 190 174 160 194 172 169 166 167 160 85 156 180 83 165 231 182 179 166 180 230 200 211 145 339 215
319 335 346 350 355 0 358 357 357 360 2 57 45 15 22 54 25 89 142 142 150 162 163 188 128 162 164 182 256 186 195 157 165 175 94 167 265 269 316 56 83 209 204 207 209 215 243
299 316 335 344 347 357 359 360 357 358 3 336 17 77 93 358 40 61 0 143 145 195 244 199 186 231 204 184 186 229 219 165 192 180 152 193 222 220 272 266 254 261 256 217 214 226 242
285 297 317 334 346 351 360 5 2 358 9 74 27 352 117 80 312 5 15 172 226 155 191 208 236 174 201 228 252 195 177 211 227 179 201 208 258 260 273 245 236 261 256 245 247 249 258
269 286 303 320 336 351 359 7 10 7 19 80 60 99 293 2 38 300 67 102 1 352 150 308 255 230 227 253 241 242 246 307 277 194 198 214 228 286 271 296 300 269 241 214 211 221 233
240 248 281 305 320 337 348 4 16 20 42 72 76 74 341 328 289 288 198 212 213 195 260 359 199 228 19 1 159 146 113 146 208 210 211 177 194 253 285 312 246 100 177 222 201 231 216
237 249 254 264 285 306 320 342 19 26 30 79 121 69 48 304 316 274 240 241 259 231 226 233 203 272 281 352 275 279 194 187 96 49 224 212 199 249 275 281 304 159 188 171 199 167 196
233 238 244 255 264 267 280 295 303 45 50 88 96 133 99 316 220 285 293 276 297 273 240 214 139 132 335 193 208 248 255 356 174 147 32 181 261 224 189 263 253 80 137 183 244 190 153
235 242 244 243 250 260 259 256 253 231 188 119 121 195 118 243 219 171 200 228 138 275 269 274 179 169 27 201 221 228 246 324 227 190 162 151 200 217 229 270 281 253 146 166 267 41 241
234 243 248 246 244 248 254 260 246 224 202 179 104 195 243 209 259 201 202 176 156 209 252 120 222 158 126 212 219 224 229 207 256 158 179 181 168 191 198 228 269 155 112 212 40 331 306
187 183 192 201 209 284 271 260 253 238 202 174 210 161 151 226 291 237 252 248 213 200 178 189 334 181 213 184 230 243 228 200 228 250 200 229 212 189 206 224 24 200 259 279 359 305 306